Weather in Uchebnoye

Russia / The Kabardino-Balkar Republic     43°46′46″N   43°55′45″E
temp.,
°C
wind,
m/s
gust,
m/s
humid.,
%
clouds,
%
prec.,
mm/h
press.,
hPa
HPBL,
m
6 march, sat
sat600:00+4s23630 0.0 102025
03:00+3ssw11610 0.0 102022
06:00+3s34570 0.0 102061
09:00+8s22410 0.0 1018122
12:00+15se33260 0.0 1015415
15:00+17ese35220 0.0 1013911
18:00+13ene233452 0.0 101423
21:00+10nnw234676 0.0 101444
7 march, sun
sun700:00+9wnw2354100 0.0 101431
03:00+6nw11187597 0.0 1017837
06:00+2nnw81270100 0.0 10221275
09:00+1nnw5768100 0.1 1024926
12:00+3nnw4532100 0.0 10231398
15:00+5n332977 0.0 10221630
18:00+3ne23371 0.0 102357
21:00+1e23471 0.0 102452
8 march, mon
mon800:00−1ne22530 0.0 102325
03:00−1n22540 0.0 102349
06:00−2nnw12560 0.0 102224
09:00+1ene11420 0.0 1021460
12:00+4ene22370 0.0 10181096
15:00+6e223721 0.0 10161449
18:00+4ne124644 0.0 101730
21:00+3ene225072 0.0 101833
9 march, tue
tue900:00+2sse115774 0.0 101822
03:000n236558 0.0 101832
06:00−1nnw227147 0.0 101823
09:00+3nne115427 0.0 1018442
12:00+6e11450 0.0 10161040
15:00+8e21410 0.0 10151410
18:00+6ene22490 0.0 101737
21:00+5nne015441 0.0 102022
10 march, wed
wed1000:00+2nnw589099 0.0 1021576
03:00+2nnw267899 0.1 1022426
06:00+1nnw3774100 0.4 1023809
09:00+1nnw2363100 0.4 1023869
12:00+3nne3348100 0.0 10221224
15:00+4ene3351100 0.0 10211180
18:00+3e4453100 0.0 10211049
21:00+2e4655100 0.0 10211036